Location: Plourde
(48.6886°N, 67.9500°W)
Time: 00:23:10
(UTC+00:00)

Tiangong - Visible Passes

Search period start: 09 December 2021 00:00
Search period end: 19 December 2021 00:00
Orbit: 379 x 385 km, 41.5° (Epoch: 08 December)

Date Brightness Start Highest point End Pass type
(mag) Time Alt. Az. Time Alt. Az. Time Alt. Az.
09 Dec 3.7 22:40:15 10° S 22:41:15 12° SSE 22:41:15 12° SSE visible
10 Dec 3.9 23:15:05 10° SW 23:15:47 14° SSW 23:15:47 14° SSW visible
11 Dec 3.3 22:15:03 10° SSW 22:17:06 16° SSE 22:18:07 14° SE visible
12 Dec 3.7 21:15:24 10° S 21:16:47 12° SSE 21:18:10 10° SE visible
12 Dec 3.1 22:50:24 10° SW 22:52:35 21° S 22:52:35 21° S visible
13 Dec 3.2 21:50:09 10° SW 21:52:31 19° S 21:54:52 10° ESE visible
13 Dec 4.1 23:26:16 10° WSW 23:27:02 14° SW 23:27:02 14° SW visible
14 Dec 3.0 22:25:45 10° SW 22:28:17 22° S 22:29:21 18° SSE visible
15 Dec 3.2 21:25:20 10° SW 21:27:51 21° S 21:30:20 10° ESE visible
15 Dec 3.5 23:01:47 10° WSW 23:03:52 18° SSW 23:03:52 18° SSW visible
16 Dec 3.3 22:01:08 10° WSW 22:03:35 21° S 22:06:03 10° SE visible
17 Dec 3.8 22:37:25 10° SW 22:39:16 15° SSW 22:40:56 11° SSE visible
18 Dec 3.7 21:36:33 10° WSW 21:38:48 18° SSW 21:41:04 10° SSE visible
